Dewpoint
57 45 41 39 62 61 48 45 29 42 39 33 21 16 15 17 21 18 18 17 12 21 27 45 49 48 45 47 48 48 47 46 47 44 48 62 62 67 67 67 67 67 69 70 71 71 72 73 73 73 73 73 73 73 73 73 73 73 73 73 73 73 73 73 73 73 72 72 72 71 71 70 70 70 70 69 69 69 68 68 68 69 70 69 70 70 69 69 69 69 69 69 69 69 69 69 69
50 45 41 40 57 51 37 34 35 26 26 18 15 15 17 16 20 18 17 17 16 18 23 46 45 46 46 46 46 47 49 49 56 60 62 60 65 67 67 67 66 67 69 71 71 71 71 72 73 73 73 73 73 73 73 73 73 73 73 73 73 73 73 73 73 73 73 72 71 71 71 70 70 70 69 68 67 66 66 67 68 68 69 69 70 70 69 69 70 69 70 70 69 70 70 70 70
52 46 41 43 47 39 27 24 25 23 25 17 15 14 16 15 16 18 19 11 13 12 17 41 43 44 45 47 46 48 52 57 58 59 62 58 66 67 67 67 67 68 69 70 70 71 71 72 73 73 72 73 73 73 73 73 73 73 73 73 73 73 73 73 73 73 73 72 71 71 71 70 70 70 69 68 68 68 68 67 66 66 68 69 69 69 70 69 69 70 69 70 70 70 70 71 71
54 48 42 44 35 25 30 24 31 20 18 15 15 16 15 15 17 18 23 14 12 13 13 37 42 44 44 42 44 49 50 59 58 59 61 58 63 67 67 67 68 67 68 69 70 70 71 72 73 72 72 73 72 73 73 73 73 73 73 73 73 73 73 73 73 73 73 73 72 71 71 71 70 70 69 69 68 67 67 67 67 67 68 69 69 69 70 69 69 70 70 70 70 70 71 71 72
47 46 43 45 36 33 34 34 19 17 15 15 14 16 17 17 18 18 22 14 15 14 15 24 40 40 43 46 48 48 52 54 58 59 59 59 66 67 67 67 66 66 66 68 69 70 71 73 72 73 72 73 72 72 73 73 73 73 73 73 73 73 73 73 73 73 72 72 72 71 71 71 70 70 69 68 68 68 68 68 68 67 68 68 69 69 70 70 70 70 69 69 70 71 71 72 72
38 38 38 38 29 26 22 24 22 16 16 15 14 15 16 17 19 24 19 14 15 14 15 15 30 38 39 42 53 48 51 52 58 59 60 58 67 68 67 67 65 65 66 68 69 70 71 73 73 73 73 72 73 73 73 73 73 73 73 73 73 73 73 73 73 73 72 72 71 71 70 70 70 70 69 68 67 67 67 67 67 67 68 68 69 69 70 70 70 69 69 69 70 70 70 71 71
32 30 26 29 28 35 24 20 16 15 14 15 14 15 16 16 18 19 22 16 18 14 16 18 36 38 38 45 47 51 53 55 57 59 59 61 67 67 67 66 65 65 66 68 69 70 71 73 73 73 73 73 72 72 73 73 73 73 73 73 73 73 73 73 73 73 72 71 71 70 70 70 70 70 70 69 68 67 67 67 67 68 68 68 69 70 70 70 70 69 69 70 70 70 70 70 70
37 37 28 25 23 25 21 17 16 15 14 15 14 13 16 17 19 19 19 20 14 15 13 16 28 43 46 46 46 51 53 57 58 59 59 62 67 66 66 65 65 66 68 68 69 70 72 72 73 73 73 73 73 73 73 73 73 73 73 73 73 73 73 73 73 72 72 71 71 71 71 71 71 70 70 69 68 68 68 68 67 67 68 69 69 70 70 70 69 70 69 70 70 70 70 70 70
28 25 37 21 19 29 17 17 15 16 15 14 14 18 35 20 19 21 20 21 17 18 13 14 39 41 43 46 48 54 57 58 58 62 57 62 66 66 65 65 66 67 68 68 69 71 71 72 73 73 73 73 73 73 73 73 73 73 73 73 73 73 73 73 73 72 72 71 71 71 71 71 70 70 70 69 68 68 68 67 68 68 68 68 70 70 69 69 69 69 70 70 71 70 70 70 70
24 21 25 23 19 17 16 15 15 14 14 15 14 14 13 18 19 21 20 20 16 18 14 13 28 41 49 49 52 54 56 58 58 57 58 61 64 65 66 67 68 67 68 69 70 70 70 73 73 73 73 73 73 73 73 73 73 73 73 73 73 73 73 73 73 72 72 72 71 72 71 70 70 70 69 69 68 68 68 67 67 67 67 68 69 69 69 69 70 70 70 70 69 70 69 70 70
24 22 27 25 23 17 15 15 14 14 14 14 14 14 13 14 15 20 19 18 19 18 12 11 45 51 50 54 56 54 56 56 57 58 60 60 64 66 67 69 68 68 68 69 69 70 71 71 73 73 73 73 73 73 73 73 73 73 73 73 73 73 73 73 72 72 72 72 72 71 71 70 70 70 69 68 68 67 68 67 67 67 67 68 69 69 69 70 69 70 69 69 69 68 69 70 70
22 20 25 17 16 17 15 14 14 14 14 13 13 13 14 15 14 13 16 15 20 15 14 16 27 55 54 53 56 56 59 59 58 59 60 62 64 68 68 68 67 68 68 68 70 70 70 71 71 73 73 73 73 73 73 73 73 73 73 73 73 73 73 73 72 72 72 72 72 71 71 70 69 69 69 68 68 67 67 67 67 67 67 68 68 69 69 70 69 69 69 69 69 69 70 69 70
20 19 17 17 17 16 16 15 14 18 13 13 13 13 14 13 14 14 17 16 16 15 14 15 42 53 53 53 57 61 60 60 61 61 63 62 64 68 68 67 67 68 68 69 69 70 70 70 71 71 73 74 73 73 73 73 73 73 73 73 73 73 73 72 72 72 72 72 71 71 70 69 69 69 68 68 67 67 66 67 67 67 68 68 68 69 69 69 69 69 69 69 69 68 69 70 70
20 19 19 16 17 15 14 14 14 13 12 14 14 14 13 12 14 15 14 14 15 14 15 15 20 51 53 55 59 59 59 62 64 65 63 62 63 68 68 68 68 68 68 68 68 69 69 70 71 72 72 72 73 73 73 73 73 73 73 73 73 73 73 72 72 72 72 71 71 70 69 69 69 68 68 67 67 66 67 67 67 67 67 68 68 68 69 68 69 69 68 69 69 68 69 69 69
17 19 19 17 16 16 15 14 12 12 12 13 13 13 13 17 14 14 14 13 14 15 15 14 48 53 53 54 58 58 61 62 63 63 62 62 64 68 69 69 68 68 67 67 68 68 68 69 70 72 72 72 73 72 72 73 73 73 73 73 73 73 73 72 72 71 71 71 70 69 69 69 68 68 67 67 66 66 66 67 67 67 67 68 68 68 69 69 68 69 69 69 68 69 69 68 70
18 18 19 18 15 14 14 14 14 13 12 12 13 13 12 13 13 12 14 13 17 14 13 15 29 44 55 55 57 59 62 62 63 63 63 64 66 67 68 68 67 67 66 66 67 67 67 68 70 71 71 72 72 72 72 72 73 73 73 73 73 72 72 72 71 71 70 70 69 69 69 69 67 66 67 66 66 66 66 67 67 67 67 68 68 68 69 69 69 68 68 69 69 69 68 70 69
22 18 17 16 14 14 14 14 13 12 13 13 13 12 11 11 12 12 16 16 18 19 14 13 15 39 54 56 59 62 62 64 65 64 64 64 63 64 65 65 66 66 66 66 66 66 67 69 69 69 70 71 71 72 72 72 72 73 72 72 72 72 71 71 71 70 70 70 69 69 69 68 66 65 66 66 66 67 67 67 67 67 68 68 68 69 69 69 68 68 68 68 69 69 70 69 70
19 16 14 14 15 14 14 14 14 14 13 13 13 13 13 12 12 13 19 13 22 17 12 21 52 56 55 59 61 61 62 64 64 63 63 63 63 62 63 63 64 64 64 65 65 65 66 68 68 68 70 70 71 72 72 72 72 72 72 71 71 71 71 71 69 69 71 69 70 69 67 68 66 65 65 68 67 67 67 67 67 68 68 68 69 69 69 69 69 69 69 69 69 69 68 68 68
15 17 15 13 14 14 15 14 14 13 13 13 13 13 12 12 12 15 12 13 13 13 12 47 57 58 59 59 60 62 63 64 64 64 63 63 62 63 63 63 63 63 63 64 64 64 66 66 67 68 69 70 70 71 72 72 72 71 71 71 71 71 71 70 69 70 69 68 68 67 68 66 65 66 66 68 68 68 68 67 67 68 68 68 69 69 69 70 69 70 69 70 70 70 68 67 67
14 15 14 13 14 14 15 14 14 14 13 12 12 12 12 12 12 13 10 12 13 12 21 24 57 57 58 59 60 62 63 63 64 64 64 63 63 63 63 63 62 63 63 63 64 65 66 65 66 67 68 69 70 71 71 71 71 71 71 71 70 70 70 70 69 68 67 66 65 66 67 66 66 66 67 69 68 67 66 67 68 69 68 69 69 70 70 70 69 69 70 69 70 68 67 67 66
13 13 13 14 14 13 13 14 14 14 13 12 12 12 11 11 12 11 10 10 14 17 15 14 40 57 58 59 60 62 63 63 64 64 64 64 64 64 63 63 62 62 63 63 64 65 64 65 65 66 67 69 69 70 71 71 71 70 70 70 70 70 70 69 68 67 65 63 64 65 67 68 67 66 67 67 65 65 66 66 67 67 66 66 69 67 67 65 65 64 61 62 63 63 65 65 64
12 11 12 13 13 13 14 14 14 14 13 13 12 11 10 11 12 12 10 9 13 12 14 15 23 57 58 59 60 62 62 63 63 64 64 64 64 63 63 64 63 62 63 63 63 64 64 64 64 66 67 68 69 70 70 70 70 69 69 69 69 69 69 68 67 67 66 63 62 64 67 67 66 67 66 65 64 66 66 65 66 66 66 66 67 67 66 64 62 61 59 62 64 65 63 64 65
9 9 10 11 12 12 14 14 13 13 13 12 11 11 11 11 11 11 10 10 16 13 13 16 49 52 59 60 61 62 62 64 64 64 64 63 64 64 63 63 62 61 63 62 63 63 64 64 64 66 67 68 68 69 70 70 70 69 69 69 68 68 68 68 67 67 66 63 63 65 66 65 62 64 65 65 64 65 65 64 65 65 65 65 65 65 63 63 67 64 66 66 67 68 66 64 64
10 9 9 9 10 11 13 12 13 13 14 13 11 11 10 11 10 10 10 12 10 19 13 49 56 59 60 60 61 61 61 63 64 64 64 64 64 64 63 63 61 61 62 62 62 64 64 63 65 65 66 67 68 69 69 69 69 69 69 69 69 68 67 67 68 67 65 65 64 67 65 64 63 60 62 64 64 63 62 61 63 63 62 63 63 62 60 67 67 67 67 67 66 66 64 63 63
9 9 10 9 9 9 11 11 11 12 12 12 11 10 10 10 10 10 10 10 10 15 13 50 55 58 59 60 61 62 62 63 63 64 65 64 65 65 64 63 61 62 61 61 63 63 64 65 65 64 65 65 67 68 69 69 69 68 68 68 68 69 67 67 67 66 65 65 68 66 65 63 66 63 63 64 65 60 59 58 60 60 60 61 65 64 67 68 67 67 67 66 65 64 63 63 61
15 9 9 9 8 8 8 9 10 11 12 11 11 10 11 11 12 10 10 11 11 14 11 47 54 56 59 60 62 63 62 63 64 65 65 64 66 63 64 60 61 62 61 62 63 64 64 65 64 64 64 64 66 68 68 68 68 68 68 68 67 68 67 67 66 64 64 64 66 64 64 64 66 67 65 64 65 61 59 58 59 60 64 67 70 69 70 69 68 68 67 66 65 63 62 62 61
17 12 10 7 7 7 8 8 8 10 11 11 10 11 10 11 11 9 10 11 12 11 13 26 51 55 57 60 63 64 64 63 64 65 65 64 65 63 63 61 62 62 62 63 63 65 65 65 65 64 65 65 65 66 67 67 68 68 68 68 68 67 66 68 65 64 64 64 66 65 65 66 67 68 67 65 64 67 66 64 66 68 69 70 70 69 69 69 69 68 67 66 63 64 62 62 57
23 19 13 8 7 6 7 6 6 7 9 11 12 11 11 10 9 9 9 12 13 11 10 10 36 50 54 60 62 64 64 64 64 65 64 64 64 62 63 61 62 63 62 63 64 66 66 65 65 65 65 66 65 66 67 67 68 68 68 67 66 67 68 66 65 65 65 64 66 66 65 66 68 68 68 68 67 66 67 67 66 67 68 69 69 70 70 69 68 68 67 68 66 64 63 65 59
24 22 19 14 8 5 5 5 6 6 8 13 13 12 11 10 8 8 10 12 11 11 10 13 13 21 49 58 63 64 64 64 64 65 64 65 64 62 63 63 63 64 63 64 65 66 65 65 67 65 65 67 65 66 67 68 68 68 68 67 66 68 66 66 65 66 64 66 65 66 67 68 67 68 68 67 66 65 66 67 68 68 68 68 68 70 70 69 67 67 65 65 66 63 63 60 59
26 26 19 16 11 6 5 5 5 5 8 11 12 9 9 10 9 8 9 13 12 9 11 14 21 28 48 58 63 64 64 64 64 65 65 65 64 63 64 64 64 64 64 65 65 65 66 66 68 67 65 68 67 66 67 67 68 68 67 67 67 67 66 65 65 66 65 67 66 67 68 68 68 68 67 65 65 66 68 69 68 69 69 69 68 68 68 68 67 66 67 65 66 63 60 57 57
23 24 20 15 11 7 5 4 5 6 8 8 9 8 8 8 9 8 11 10 9 11 15 16 28 41 51 60 63 64 64 64 64 65 65 65 64 63 65 65 65 65 65 65 65 65 67 67 67 67 67 67 68 66 67 67 68 67 67 67 67 66 66 66 66 66 66 67 67 67 68 68 67 67 65 65 65 67 68 68 68 68 69 69 68 69 67 67 66 67 64 60 61 61 58 60 58
26 24 19 15 12 9 5 7 6 6 7 7 7 6 6 7 8 8 11 25 21 12 14 22 28 28 55 61 63 64 64 64 65 65 66 66 65 64 66 65 65 65 65 65 65 66 66 66 67 66 67 66 67 66 67 67 67 67 67 68 67 66 66 66 66 66 66 67 67 67 68 68 66 65 66 67 67 67 68 68 68 68 68 68 68 69 69 67 66 64 64 62 60 59 58 57 58
25 25 21 14 13 10 5 4 5 7 7 7 7 5 5 4 8 9 22 27 30 19 19 24 34 40 55 62 63 64 64 64 65 65 65 66 66 65 65 65 65 66 65 65 66 66 66 66 67 66 66 66 67 66 66 66 67 66 66 66 67 66 65 65 65 66 66 66 67 66 67 66 65 66 66 67 67 67 68 68 68 68 68 67 68 68 68 68 68 67 65 64 61 58 57 54 57
23 24 24 18 12 11 7 4 3 5 6 6 7 6 5 7 8 13 28 24 27 16 19 29 30 35 45 61 63 63 63 64 64 64 65 66 66 66 66 66 66 66 66 66 66 66 66 66 66 66 66 67 67 66 66 66 67 66 67 66 67 66 64 65 64 65 65 66 67 67 66 66 66 67 67 67 67 68 68 67 66 67 67 67 68 68 68 67 65 63 63 63 58 56 57 56 59
22 23 23 19 13 11 8 4 2 3 6 6 6 6 6 4 8 9 13 27 21 15 17 22 22 22 39 55 62 63 63 63 64 64 66 66 66 66 65 66 66 66 66 66 66 66 66 66 66 66 66 67 66 67 67 66 67 67 67 67 66 66 64 65 64 65 67 66 66 67 67 67 67 67 67 67 67 67 66 66 66 67 67 67 67 67 67 64 65 63 62 62 61 57 58 59 60
22 22 21 17 14 11 10 7 4 2 3 6 6 5 5 4 3 9 16 18 23 22 21 23 25 21 23 40 56 62 63 63 64 65 66 66 66 65 65 66 66 67 66 66 66 66 65 65 65 65 66 67 66 67 66 66 66 66 66 66 66 65 64 67 66 66 66 67 67 67 67 68 67 67 66 66 66 66 66 66 66 68 68 67 67 66 64 63 65 63 59 60 57 56 57 58 59
19 20 20 17 14 12 12 9 5 3 1 3 5 5 6 5 3 8 12 14 15 13 18 26 23 24 22 33 46 61 62 62 65 65 66 66 66 65 65 65 66 67 66 66 66 65 65 65 65 64 66 66 66 66 65 65 65 65 65 65 65 65 65 67 66 66 66 67 67 67 67 67 67 66 66 66 66 67 66 66 66 67 67 67 66 63 63 63 64 64 64 62 57 54 54 58 58
17 18 17 16 14 11 11 9 7 4 5 5 7 5 5 7 8 9 12 13 11 13 11 17 24 22 23 32 42 60 61 64 64 64 66 66 65 65 65 66 66 66 65 65 65 64 65 65 64 64 66 66 66 66 66 66 65 65 64 65 64 64 66 66 65 66 66 67 67 67 67 67 67 66 66 66 66 65 65 66 67 67 66 65 66 65 64 65 62 62 62 59 57 54 53 56 57
15 17 17 16 15 12 11 10 7 4 4 5 6 6 6 9 14 13 13 11 11 10 15 12 16 25 31 36 38 59 62 63 63 63 65 65 65 65 65 66 66 65 65 65 64 64 64 64 63 64 66 66 66 66 66 65 65 66 65 65 65 65 67 67 66 67 66 66 66 67 67 67 67 66 66 66 64 65 66 66 66 66 66 66 65 63 60 61 61 59 62 60 54 55 55 55 54
13 15 17 16 16 14 10 9 9 6 5 5 8 7 8 11 15 15 13 10 13 19 24 29 27 21 29 37 40 59 62 62 62 63 64 65 64 64 65 66 66 66 65 64 64 64 64 63 63 63 66 65 66 66 66 66 66 66 66 65 65 65 65 66 66 66 66 67 66 66 67 67 67 67 66 66 65 65 65 66 66 67 65 65 64 60 60 59 60 58 60 61 57 51 52 50 55
13 13 16 16 16 15 13 7 8 6 5 5 6 10 12 10 12 12 13 15 17 21 21 21 35 31 27 40 44 61 61 62 62 62 64 64 64 64 65 66 66 65 65 64 63 63 64 63 63 63 65 65 66 66 66 66 65 65 65 65 65 65 65 65 65 65 66 67 66 66 67 67 66 66 66 66 66 65 65 65 65 63 62 61 60 58 57 57 57 57 59 59 57 51 50 50 51
14 14 14 16 15 15 16 10 6 7 8 5 3 8 9 12 12 11 11 11 14 15 15 13 18 31 27 36 45 59 61 62 61 62 64 64 64 64 65 66 65 65 64 64 63 63 64 64 63 63 65 65 65 66 66 66 64 64 63 63 63 63 63 63 63 64 65 65 65 66 66 66 66 66 66 67 67 66 65 65 63 61 59 60 60 59 57 56 56 56 57 57 56 53 50 50 49
15 14 14 14 15 15 15 15 6 6 5 4 5 2 8 14 10 11 10 8 9 16 16 14 16 29 28 34 46 58 60 61 61 62 64 64 64 64 65 65 65 64 64 64 64 64 64 64 64 64 65 65 65 66 66 66 64 64 63 63 63 63 63 62 63 64 65 65 65 65 65 65 66 66 65 65 65 65 63 63 62 59 59 59 60 57 56 56 56 57 57 56 56 55 50 48 48
13 15 15 13 13 14 14 14 12 7 8 6 0 0 9 11 11 12 11 10 9 11 14 18 25 27 28 32 46 57 59 60 61 62 63 63 64 64 65 65 65 64 64 64 64 64 63 63 64 64 64 65 65 65 66 66 64 64 63 62 63 63 64 64 64 64 64 65 64 64 63 63 64 64 64 63 63 62 61 59 59 58 58 57 57 56 56 56 56 57 57 56 56 56 52 50 50
14 16 16 13 12 13 14 14 14 13 7 5 3 -2 -0 9 14 14 13 11 11 10 12 21 27 28 30 32 54 58 59 60 61 62 63 63 64 65 65 65 65 65 65 64 64 64 64 64 64 64 64 64 65 65 65 65 65 64 63 63 63 64 64 64 64 64 64 63 63 62 62 62 62 62 62 62 61 61 60 57 56 56 56 56 56 55 55 55 55 55 54 54 53 54 54 53 51
13 15 16 14 13 12 13 13 13 14 13 8 2 -1 -3 -0 17 13 13 11 11 11 12 20 26 29 31 36 57 59 59 60 61 62 63 63 64 65 66 65 65 65 65 65 65 64 64 64 64 64 64 64 65 65 65 65 65 65 63 63 64 63 64 64 64 63 62 62 62 62 61 61 61 60 60 60 59 58 57 55 54 53 53 54 55 54 54 54 55 55 54 53 52 51 52 52 51
14 16 15 13 12 10 12 14 14 15 15 12 2 -2 -3 4 13 11 15 14 11 12 14 19 24 29 31 38 58 59 59 60 61 62 63 63 64 65 66 65 65 65 65 65 65 65 65 64 65 64 64 65 65 66 65 65 65 63 63 63 63 63 63 63 62 62 62 62 62 61 61 61 60 60 60 60 59 57 56 56 55 56 56 56 54 53 54 54 54 53 53 53 52 51 51 51 51
13 14 15 13 12 12 12 14 14 14 14 11 6 -0 -1 2 12 9 10 17 12 12 13 17 25 29 31 43 58 59 60 60 61 62 62 63 64 65 65 65 65 65 65 65 65 66 65 65 65 65 65 65 65 66 66 65 64 63 63 63 63 63 63 62 62 61 62 62 62 61 61 61 60 60 60 58 57 57 56 56 56 54 53 52 51 52 53 54 54 54 54 54 53 53 53 51 49
12 14 15 13 11 14 14 12 14 14 11 12 6 2 3 2 13 13 10 10 12 12 11 14 26 30 32 49 57 59 60 60 61 61 62 63 64 64 65 65 65 65 65 65 65 65 65 65 65 64 65 65 66 66 65 65 64 63 63 63 63 63 63 62 62 61 62 62 61 61 60 60 59 58 58 57 57 56 56 55 54 54 53 53 53 53 53 53 53 53 52 52 51 51 51 50 49
12 14 16 13 11 11 11 12 11 13 14 14 11 3 4 8 12 13 11 12 11 12 15 15 27 32 33 50 56 58 59 60 60 61 62 63 64 64 65 65 65 65 65 65 65 65 65 65 65 64 65 65 65 65 64 64 64 64 63 63 63 63 62 62 62 62 62 62 61 61 60 60 59 58 57 56 56 55 54 54 53 51 51 51 52 52 52 52 52 52 52 51 51 50 50 49 48
16 16 16 14 11 10 10 10 11 12 13 13 11 1 3 4 17 11 13 15 13 11 14 18 27 32 33 51 55 57 58 59 60 61 62 63 64 64 65 65 65 65 65 65 65 64 64 64 64 64 65 65 64 64 63 64 65 64 63 63 63 63 62 62 62 62 62 61 61 61 60 59 59 58 57 56 55 54 54 53 52 52 52 53 53 53 53 52 52 52 52 52 51 49 48 48 47
23 16 16 14 13 14 9 15 15 16 15 14 8 11 9 9 18 14 11 10 15 15 15 22 28 33 34 48 54 55 57 59 60 61 62 63 64 64 65 65 65 64 64 65 64 64 64 63 64 64 65 65 64 63 63 64 64 64 64 63 63 63 62 62 62 62 62 62 61 60 60 59 58 57 57 56 55 53 53 53 53 52 53 52 51 51 51 52 52 51 50 49 49 50 48 47 47
24 20 13 13 13 12 15 17 23 18 10 16 13 11 21 10 13 14 12 10 11 15 15 19 29 33 35 46 53 53 54 59 60 61 62 63 64 64 64 64 64 64 64 64 64 64 63 63 63 64 64 65 64 63 63 64 64 64 63 63 63 62 62 61 61 62 62 61 60 60 59 59 57 57 57 55 54 54 54 52 51 52 52 52 52 51 50 50 50 50 50 50 49 48 48 47 47
23 21 14 13 13 12 16 14 12 14 11 14 10 10 9 4 10 17 11 9 9 16 15 18 31 34 35 44 51 52 54 58 60 61 62 63 63 63 64 64 64 64 64 64 63 63 63 63 63 63 64 64 64 63 63 64 64 64 64 63 63 62 62 62 62 61 61 60 60 59 59 57 56 57 56 55 54 54 54 52 50 51 51 50 49 49 49 51 51 50 49 49 50 49 48 48 48
26 23 23 13 17 13 15 12 13 11 10 10 7 11 9 4 15 18 11 9 14 17 18 25 31 34 36 42 49 52 56 58 59 60 61 62 62 63 63 63 63 63 63 63 63 63 63 63 63 63 64 64 63 63 64 64 64 64 64 64 63 63 62 62 61 61 60 59 59 58 58 57 56 56 55 54 53 53 52 51 51 51 51 50 49 50 51 50 49 49 49 47 47 46 45 46 46
25 25 22 22 20 19 13 18 18 18 16 8 8 8 10 5 11 18 10 11 21 17 25 29 33 35 39 41 47 53 56 58 59 60 61 62 63 63 63 63 63 63 63 63 63 63 64 64 63 63 64 64 63 63 64 63 64 64 64 63 63 63 62 61 60 60 59 59 58 57 57 56 55 55 54 53 53 52 51 50 50 50 50 50 50 50 50 49 49 48 48 48 47 46 46 45 46
23 21 20 20 23 16 14 22 10 18 16 15 15 6 14 19 16 18 18 23 20 18 27 33 35 36 39 42 50 55 56 57 59 60 61 62 63 63 63 63 63 63 63 63 63 63 64 63 63 63 63 63 63 64 64 64 64 64 63 63 62 62 61 60 59 59 58 58 57 56 55 55 54 54 53 52 52 51 49 50 50 50 49 49 49 49 49 49 49 48 47 46 45 45 44 44 45
23 23 22 19 18 16 12 17 10 10 12 12 12 14 16 24 15 22 19 26 22 18 24 33 35 38 41 45 53 55 56 58 59 61 62 62 63 63 63 63 63 63 63 63 63 63 63 62 62 62 63 63 63 64 64 64 64 63 62 62 62 61 61 60 59 58 57 57 56 55 55 54 54 54 53 52 51 50 50 49 49 49 49 49 48 48 49 48 47 46 47 47 45 43 43 43 43